[[{"header":{"parameterUnit":"m.s-1","parameterCategory":1,"la1":30.2991,"la2":30.254,"lo1":-89.0895,"lo2":-89.0444,"dy":0.0017,"dx":0.0017,"nx":28,"ny":28,"refTime":"2024-08-04T09:00:00:Z","depth":0,"parameterNumber":2,"parameterNumberName":"U-component_of_WINDS"},"data":[0,0,0,0,0,0,0,0,0,0,0,0,0,0,0,0,0,0,0,0,0,0,0,0,0,0,0,0,0,0,0,0,0,0,0,0,0,0,0,0,0,0,0,0,0,0,0,0,0,0,0,0,0,0,0,0,0,0,-2.8571,-2.8571,0,-2.8548,-2.8548,-2.8548,-2.8513,-2.8513,-2.8512,-2.8511,-2.8491,-2.8491,-2.8491,0,0,0,0,0,0,0,0,0,0,0,0,0,-2.8589,-2.8588,-2.8571,-2.8571,-2.8571,-2.8548,-2.8548,-2.8548,-2.8513,-2.8513,-2.8512,-2.8511,-2.8491,-2.8491,-2.8491,0,0,0,0,0,0,0,0,0,0,0,0,0,-2.8575,-2.8588,-2.8571,-2.8551,-2.8548,-2.8549,-2.8548,-2.8548,-2.8513,-2.8512,-2.8512,-2.8511,-2.8491,-2.8491,-2.8491,-2.851,0,0,-2.8491,-2.8491,0,0,0,0,0,0,0,0,-2.8576,-2.8574,-2.8554,-2.8552,-2.855,-2.8533,-2.8547,-2.8535,-2.8514,-2.8527,-2.8511,-2.851,-2.8505,-2.8504,-2.8502,-2.8509,-2.8508,-2.8491,-2.8491,-2.8491,-2.8491,0,0,0,0,0,0,0,-2.8577,-2.8575,-2.8562,-2.8554,-2.8551,-2.8544,-2.8541,-2.8544,-2.8522,-2.8526,-2.8523,-2.8521,-2.8504,-2.8502,-2.8501,-2.8507,-2.8491,-2.8491,-2.8491,-2.8491,-2.8533,-2.8534,0,0,0,0,0,0,-2.858,-2.8576,-2.8563,-2.8561,-2.8561,-2.8544,-2.8541,-2.8539,-2.8522,-2.8518,-2.8522,-2.8519,-2.8503,-2.8501,-2.85,-2.8524,-2.8491,-2.8491,-2.8491,-2.8532,-2.8533,-2.8534,0,0,0,0,0,0,-2.8581,-2.858,-2.8564,-2.8568,-2.8566,-2.8545,-2.8543,-2.8539,-2.8537,-2.8518,-2.8515,-2.8523,-2.8502,-2.85,-2.8508,-2.8523,-2.8491,-2.8491,-2.853,-2.8532,-2.8533,-2.857,0,0,0,0,0,0,-2.8582,-2.858,-2.8586,-2.8569,-2.8566,-2.8571,-2.8544,-2.8539,-2.8537,-2.8534,-2.8519,-2.8516,-2.8501,-2.8508,-2.8508,-2.8522,-2.8491,-2.8529,-2.8531,-2.8533,-2.8568,-2.8573,-2.8577,0,0,0,0,0,-2.8582,-2.8597,-2.8586,-2.8585,-2.8572,-2.8572,-2.857,-2.8552,-2.8538,-2.8545,-2.8534,-2.8516,-2.8521,-2.851,-2.8509,-2.8523,-2.8528,-2.853,-2.8533,-2.8565,-2.8572,-2.8577,0,0,0,0,0,0,-2.8616,-2.8594,-2.8582,-2.8591,-2.8584,-2.8566,-2.8573,-2.8558,-2.8555,-2.8552,-2.8531,-2.8528,-2.8539,-2.8532,-2.8519,-2.8543,-2.8522,-2.8525,-2.8547,-2.8553,-2.8558,-2.856,-2.8491,0,0,0,0,0,-2.8624,-2.8625,-2.8606,-2.8616,-2.8613,-2.8594,-2.8593,-2.858,-2.8571,-2.8568,-2.8557,-2.855,-2.8551,-2.8551,-2.855,-2.8566,-2.8564,-2.8576,-2.8581,-2.8585,-2.8588,-2.8599,-2.8605,-2.8542,-2.8542,-2.8542,0,0,-2.8642,-2.863,-2.8631,-2.8622,-2.8615,-2.8617,-2.8591,-2.8594,-2.8596,-2.8568,-2.8576,-2.8568,-2.8559,-2.8572,-2.8577,-2.8567,-2.8605,-2.8588,-2.8592,-2.8592,-2.8602,-2.8609,-2.8614,-2.8544,-2.8543,-2.8543,0,0,-2.8676,-2.8665,-2.8674,-2.8667,-2.8657,-2.8645,-2.8647,-2.8632,-2.8626,-2.8632,-2.8613,-2.8616,-2.8616,-2.8611,-2.8609,-2.8645,-2.863,-2.8645,-2.8671,-2.8682,-2.8687,-2.8692,-2.8707,-2.8712,-2.8648,-2.8648,-2.8648,0,-2.8699,-2.8701,-2.868,-2.8685,-2.8683,-2.8658,-2.8668,-2.8663,-2.8653,-2.8653,-2.8641,-2.8643,-2.8635,-2.8648,-2.8657,-2.8655,-2.8659,-2.8647,-2.8688,-2.8692,-2.8696,-2.871,-2.8716,-2.865,-2.865,-2.8649,-2.8649,0,-2.8731,-2.8733,-2.8741,-2.8733,-2.8731,-2.8739,-2.8722,-2.8723,-2.8711,-2.8701,-2.871,-2.87,-2.8698,-2.87,-2.8688,-2.8713,-2.8707,-2.8692,-2.8671,-2.8705,-2.8718,-2.8723,-2.8653,-2.8652,-2.8651,-2.8651,0,0,-2.8784,-2.8766,-2.8769,-2.8766,-2.8754,-2.8756,-2.8764,-2.8761,-2.8765,-2.8759,-2.8767,-2.8769,-2.8756,-2.8754,-2.8741,-2.8751,-2.8783,-2.8735,-2.8734,-2.8746,-2.8814,-2.8826,-2.8833,-2.8773,-2.8774,-2.8775,-2.8815,0,-2.8817,-2.8827,-2.8811,-2.8826,-2.883,-2.8808,-2.8815,-2.8809,-2.8801,-2.8803,-2.8794,-2.8797,-2.8778,-2.8777,-2.8786,-2.8777,-2.8797,-2.8774,-2.8782,-2.8783,-2.8786,-2.8839,-2.8852,-2.889,-2.882,-2.8821,-2.8821,0,-2.8855,-2.8853,-2.8869,-2.8858,-2.8859,-2.8865,-2.8864,-2.8866,-2.8861,-2.8854,-2.8853,-2.8838,-2.8848,-2.8827,-2.8841,-2.8826,-2.8829,-2.8826,-2.8827,-2.8828,-2.8805,-2.8844,-2.8902,-2.8908,-2.8829,-2.8828,-2.8828,0,-2.8896,-2.8896,-2.8906,-2.8904,-2.8891,-2.8897,-2.8892,-2.8885,-2.8886,-2.8886,-2.8887,-2.8887,-2.8888,-2.889,-2.8877,-2.8862,-2.8894,-2.8871,-2.8891,-2.8891,-2.8899,-2.8899,-2.896,-2.8898,-2.8898,-2.8898,-2.8898,0,-2.8934,-2.8946,-2.8924,-2.8931,-2.8944,-2.8926,-2.8939,-2.8933,-2.8928,-2.8934,-2.8915,-2.8922,-2.8903,-2.8909,-2.8899,-2.8914,-2.8914,-2.8911,-2.8909,-2.8914,-2.8914,-2.8916,-2.8914,-2.8899,-2.8899,-2.8899,-2.8898,0,-2.8981,-2.8967,-2.8977,-2.8965,-2.8962,-2.8973,-2.8963,-2.897,-2.8961,-2.897,-2.8971,-2.8958,-2.8964,-2.8951,-2.8955,-2.8949,-2.8971,-2.8963,-2.8972,-2.8971,-2.8992,-2.8991,-2.9058,-2.9067,-2.8997,-2.8998,-2.8999,0,-2.9007,-2.9016,-2.9005,-2.9008,-2.9004,-2.9009,-2.901,-2.8993,-2.8996,-2.8992,-2.9,-2.9005,-2.9007,-2.9019,-2.901,-2.9015,-2.9008,-2.9031,-2.9009,-2.9015,-2.9012,-2.9012,-2.9014,-2.9036,-2.9037,-2.9038,-2.9038,0,-2.9057,-2.905,-2.9052,-2.9052,-2.9054,-2.9054,-2.9052,-2.9056,-2.9039,-2.9043,-2.9049,-2.9051,-2.9057,-2.9063,-2.9065,-2.9062,-2.9049,-2.9046,-2.9051,-2.9057,-2.9063,-2.9063,-2.8987,-2.9044,-2.9044,-2.9043,-2.9043,-2.9043,-2.9095,-2.9103,-2.9097,-2.9101,-2.9099,-2.9098,-2.9105,-2.9098,-2.9102,-2.9104,-2.9095,-2.9104,-2.9102,-2.9104,-2.9103,-2.9111,-2.9101,-2.9108,-2.911,-2.9112,-2.9117,-2.9061,-2.9111,-2.9111,-2.9111,-2.9111,-2.9111,0,-2.9146,-2.9141,-2.9145,-2.9144,-2.9148,-2.9134,-2.9132,-2.9137,-2.9145,-2.9143,-2.9147,-2.9156,-2.9162,-2.9155,-2.9161,-2.917,-2.9164,-2.9172,-2.9172,-2.9172,-2.9124,-2.912,-2.9177,-2.9177,-2.9177,-2.9177,-2.9177,-2.9177,-2.9172,-2.9185,-2.9178,-2.9191,-2.9187,-2.9195,-2.9196,-2.9197,-2.9196,-2.9207,-2.9212,-2.9207,-2.9204,-2.921,-2.9217,-2.9215,-2.9219,-2.923,-2.9226,-2.9182,-2.9175,-2.9169,-2.9165,-2.923,-2.923,-2.9273,-2.9274,-2.9274]},{"header":{"parameterUnit":"m.s-1","parameterCategory":1,"la1":30.2991,"la2":30.254,"lo1":-89.0895,"lo2":-89.0444,"dy":0.0017,"dx":0.0017,"nx":28,"ny":28,"refTime":"2024-08-04T09:00:00:Z","depth":0,"parameterNumber":3,"parameterNumberName":"V-component_of_WINDS"},"data":[0,0,0,0,0,0,0,0,0,0,0,0,0,0,0,0,0,0,0,0,0,0,0,0,0,0,0,0,0,0,0,0,0,0,0,0,0,0,0,0,0,0,0,0,0,0,0,0,0,0,0,0,0,0,0,0,0,0,0.1644,0.1644,0,0.1649,0.1649,0.1649,0.1652,0.1652,0.1652,0.1652,0.1653,0.1653,0.1653,0,0,0,0,0,0,0,0,0,0,0,0,0,0.1633,0.1634,0.1644,0.1644,0.1645,0.1649,0.1649,0.1649,0.1652,0.1652,0.1652,0.1652,0.1653,0.1653,0.1653,0,0,0,0,0,0,0,0,0,0,0,0,0,0.1638,0.1634,0.1644,0.1647,0.1647,0.1649,0.1649,0.1649,0.1652,0.1652,0.1652,0.1652,0.1653,0.1653,0.1653,0.1652,0,0,0.1653,0.1653,0,0,0,0,0,0,0,0,0.1638,0.1638,0.1646,0.1647,0.1647,0.165,0.1645,0.165,0.1652,0.165,0.1652,0.1652,0.1652,0.1652,0.1653,0.1652,0.1652,0.1653,0.1653,0.1653,0.1653,0,0,0,0,0,0,0,0.1637,0.1638,0.1646,0.1646,0.1647,0.1646,0.1646,0.1646,0.165,0.165,0.1651,0.1651,0.1652,0.1653,0.1653,0.1652,0.1653,0.1653,0.1653,0.1653,0.1645,0.1645,0,0,0,0,0,0,0.1637,0.1638,0.1646,0.1646,0.1642,0.1646,0.1647,0.1649,0.1651,0.1651,0.1651,0.1651,0.1653,0.1653,0.1653,0.1648,0.1653,0.1653,0.1653,0.1645,0.1645,0.1645,0,0,0,0,0,0,0.1637,0.1638,0.1646,0.1642,0.1643,0.1646,0.1648,0.1649,0.165,0.1651,0.1652,0.1651,0.1653,0.1653,0.1651,0.1648,0.1653,0.1653,0.1646,0.1645,0.1645,0.1641,0,0,0,0,0,0,0.1637,0.1638,0.1639,0.1642,0.1643,0.1646,0.1648,0.1649,0.165,0.165,0.1651,0.1652,0.1653,0.1651,0.1651,0.1648,0.1653,0.1646,0.1646,0.1645,0.1642,0.1641,0.164,0,0,0,0,0,0.1636,0.1638,0.1639,0.164,0.1645,0.1646,0.1646,0.1649,0.165,0.165,0.165,0.1652,0.1649,0.1651,0.1651,0.1648,0.1646,0.1646,0.1645,0.1642,0.1641,0.164,0,0,0,0,0,0,0.1634,0.1639,0.164,0.1643,0.1644,0.1647,0.1647,0.1648,0.1648,0.1648,0.165,0.165,0.1647,0.1648,0.165,0.1644,0.1647,0.1647,0.1645,0.1644,0.1643,0.1643,0.1653,0,0,0,0,0,0.1634,0.1637,0.1639,0.1642,0.1642,0.1644,0.1645,0.1646,0.1647,0.1647,0.1648,0.1647,0.1646,0.1645,0.1644,0.1641,0.164,0.1639,0.1638,0.1638,0.1637,0.1632,0.1631,0.1644,0.1644,0.1644,0,0,0.1634,0.1637,0.1638,0.1641,0.1642,0.1642,0.1645,0.1645,0.1644,0.1647,0.1645,0.1645,0.1644,0.1641,0.164,0.1641,0.1633,0.1637,0.1637,0.1636,0.1631,0.163,0.1629,0.1643,0.1643,0.1643,0,0,0.1634,0.1637,0.1638,0.1638,0.164,0.164,0.164,0.1642,0.1642,0.164,0.1641,0.1639,0.1638,0.1636,0.1635,0.1629,0.1629,0.1629,0.1625,0.162,0.1619,0.1618,0.1613,0.1612,0.1628,0.1628,0.1628,0,0.1634,0.1635,0.1638,0.1638,0.1637,0.1639,0.1638,0.1638,0.1639,0.1637,0.1639,0.1635,0.1635,0.1629,0.1628,0.1628,0.1625,0.1629,0.1619,0.1618,0.1617,0.1613,0.1611,0.1628,0.1628,0.1628,0.1628,0,0.1633,0.1633,0.1633,0.1634,0.1634,0.1633,0.1633,0.1632,0.1632,0.1632,0.1628,0.1627,0.1625,0.1623,0.1624,0.1617,0.1618,0.1619,0.1622,0.1616,0.1611,0.161,0.1628,0.1628,0.1628,0.1628,0,0,0.1634,0.1633,0.1633,0.1631,0.1631,0.1631,0.1628,0.1626,0.1624,0.1623,0.1619,0.1616,0.1616,0.1615,0.1615,0.1611,0.1602,0.1612,0.1612,0.1608,0.1591,0.1589,0.1587,0.1602,0.1602,0.1602,0.159,0,0.1632,0.163,0.163,0.1627,0.1625,0.1625,0.1622,0.162,0.1619,0.1616,0.1614,0.1611,0.1613,0.1611,0.1607,0.1604,0.1599,0.1605,0.1596,0.1596,0.1596,0.1585,0.1584,0.1573,0.1589,0.1588,0.1588,0,0.1631,0.1629,0.1626,0.1622,0.1621,0.1619,0.1615,0.1613,0.1609,0.1608,0.1605,0.1604,0.1599,0.1601,0.1592,0.1596,0.1592,0.159,0.1589,0.1588,0.1591,0.1581,0.157,0.1567,0.1586,0.1586,0.1586,0,0.1628,0.1626,0.1622,0.1621,0.1618,0.1616,0.1614,0.161,0.1608,0.1603,0.1601,0.1596,0.1592,0.1587,0.1584,0.1587,0.1573,0.1577,0.157,0.157,0.1567,0.1567,0.1553,0.1567,0.1567,0.1567,0.1567,0,0.1626,0.1623,0.1621,0.1619,0.1614,0.1613,0.1608,0.1606,0.1602,0.1597,0.1597,0.1592,0.1589,0.1582,0.158,0.157,0.1569,0.1566,0.1565,0.1566,0.1566,0.1562,0.1562,0.1566,0.1567,0.1567,0.1567,0,0.1624,0.1622,0.1618,0.1614,0.1613,0.1609,0.1605,0.1601,0.1599,0.1592,0.1591,0.1586,0.1579,0.1575,0.1566,0.1563,0.1552,0.1552,0.1553,0.1553,0.1545,0.1545,0.1527,0.1523,0.1541,0.1541,0.1541,0,0.1622,0.1619,0.1615,0.1612,0.161,0.1605,0.1602,0.1599,0.1595,0.1589,0.1585,0.1577,0.1571,0.1558,0.1552,0.1544,0.1543,0.1537,0.1542,0.1541,0.154,0.154,0.1538,0.1536,0.1536,0.1536,0.1536,0,0.1618,0.1616,0.1612,0.1607,0.1603,0.1598,0.1594,0.1591,0.1587,0.1582,0.1574,0.1569,0.1558,0.1549,0.154,0.1535,0.1533,0.1534,0.1531,0.1531,0.1531,0.1529,0.1549,0.1534,0.1535,0.1535,0.1535,0.1535,0.1614,0.1611,0.1606,0.16,0.1596,0.1591,0.1586,0.1582,0.1576,0.1567,0.1565,0.1556,0.1548,0.1535,0.153,0.1521,0.1522,0.1519,0.1518,0.1517,0.1516,0.1533,0.1519,0.1519,0.1519,0.152,0.152,0,0.1608,0.1604,0.1599,0.1592,0.1586,0.1586,0.158,0.1574,0.1567,0.156,0.1553,0.1542,0.1532,0.1525,0.1514,0.1508,0.1506,0.1505,0.1505,0.1503,0.1517,0.1519,0.1506,0.1506,0.1506,0.1506,0.1506,0.1506,0.1605,0.1598,0.1595,0.1584,0.158,0.1571,0.1567,0.1561,0.1555,0.1543,0.1535,0.153,0.1522,0.151,0.15,0.1497,0.1492,0.1491,0.1488,0.1501,0.1502,0.1504,0.1506,0.149,0.149,0.1475,0.1475,0.1475]}]]